Weather History for Bentonville, AR

Change the Weather History Date:

Monday, December 24, 2012

  Actual Average Record
Temperature  
Mean Temperature 34 °F -  
Max Temperature 41 °F 46 °F 75 °F (1955)
Min Temperature 26 °F 23 °F -15 °F (1989)
Degree Days  
Heating Degree Days 32    
Moisture  
Dew Point 24 °F    
Average Humidity 71    
Maximum Humidity 86    
Minimum Humidity 53    
Precipitation  
Precipitation 0.00 in - - ()
Sea Level Pressure  
Sea Level Pressure 29.94 in    
Wind  
Wind Speed 7 mph (NNE)    
Max Wind Speed 12 mph    
Max Gust Speed -    
Visibility 8 miles    
Events      
Averages and records for this station are not official NWS values.
T = Trace of Precipitation, MM = Missing Value Source: NWS Daily Summary

Daily Weather History Graph

Daily Weather History Graph

Search for Another Location

Airport:

Trip Planner

Search our weather history database for the weather conditions in past years. The results will help you decide how hot, cold, wet, or windy it might be!

Date:

Astronomy

Dec. 24, 2012 Rise Set
Actual Time 7:26 AM CST 5:07 PM CST
Civil Twilight 6:57 AM CST 5:36 PM CST
Nautical Twilight 6:25 AM CST 6:08 PM CST
Astronomical Twilight 5:53 AM CST 6:39 PM CST
Moon 2:33 PM CST (12/24) 4:07 AM CST (12/24)
Length of Visible Light 10h 38m
Length of Day
9h 41m
Waxing Gibbous, 88% of the Moon is Illuminated
Dec 24
Waxing Gibbous
Dec 28
Full
Jan 4
Last Quarter
Jan 11
New
Jan 18
First Quarter

Hourly Weather History & Observations

Time (CST) Temp. Windchill Dew Point Humidity Pressure Visibility Wind Dir Wind Speed Gust Speed Precip Events Conditions
12:15 AM 39.2 °F 35.0 °F 30.2 °F 70% 29.85 in 10.0 mi NNW 5.8 mph - N/A   Clear
12:55 AM 37.4 °F 33.8 °F 30.2 °F 75% 29.84 in 10.0 mi NNW 4.6 mph - N/A   Clear
1:15 AM 37.4 °F 32.1 °F 30.2 °F 75% 29.86 in 10.0 mi NNW 6.9 mph - N/A   Clear
1:35 AM 37.4 °F 30.8 °F 28.4 °F 70% 29.87 in 10.0 mi NNW 9.2 mph - N/A   Clear
1:55 AM 35.6 °F 27.5 °F 28.4 °F 75% 29.89 in 10.0 mi NNW 11.5 mph - N/A   Clear
2:15 AM 35.6 °F 29.9 °F 26.6 °F 70% 29.88 in 10.0 mi North 6.9 mph - N/A   Clear
2:35 AM 33.8 °F 28.6 °F 26.6 °F 75% 29.87 in 10.0 mi North 5.8 mph - N/A   Clear
2:55 AM 33.8 °F 29.6 °F 26.6 °F 75% 29.86 in 9.0 mi NNW 4.6 mph - N/A   Clear
3:15 AM 33.8 °F 28.6 °F 26.6 °F 75% 29.88 in 9.0 mi NNW 5.8 mph - N/A   Clear
3:35 AM 32.0 °F 25.6 °F 26.6 °F 80% 29.89 in 8.0 mi NNW 6.9 mph - N/A   Clear
3:55 AM 32.0 °F 25.6 °F 26.6 °F 80% 29.89 in 7.0 mi North 6.9 mph - N/A   Clear
4:15 AM 30.2 °F 21.9 °F 26.6 °F 86% 29.89 in 7.0 mi North 9.2 mph - N/A   Clear
4:55 AM 30.2 °F 22.6 °F 24.8 °F 80% 29.93 in 5.0 mi NW 8.1 mph - N/A   Clear
5:15 AM 28.4 °F 21.2 °F 23.0 °F 80% 29.92 in 5.0 mi NNE 6.9 mph - N/A   Clear
5:35 AM 28.4 °F 19.7 °F 24.8 °F 86% 29.93 in 5.0 mi NNW 9.2 mph - N/A   Clear
5:55 AM 28.4 °F 21.2 °F 23.0 °F 80% 29.94 in 5.0 mi North 6.9 mph - N/A   Clear
6:15 AM 28.4 °F 19.1 °F 23.0 °F 80% 29.94 in 5.0 mi North 10.4 mph - N/A   Clear
6:55 AM 26.6 °F 18.2 °F 21.2 °F 80% 29.99 in 5.0 mi NNW 8.1 mph - N/A   Overcast
7:15 AM 26.6 °F 20.0 °F 21.2 °F 80% 29.99 in 5.0 mi North 5.8 mph - N/A   Mostly Cloudy
7:35 AM 26.6 °F 19.1 °F 21.2 °F 80% 29.99 in 4.0 mi North 6.9 mph - N/A   Scattered Clouds
7:55 AM 26.6 °F 20.0 °F 21.2 °F 80% 30.00 in 4.0 mi North 5.8 mph - N/A   Clear
8:35 AM 26.6 °F 19.1 °F 21.2 °F 80% 30.00 in 4.0 mi North 6.9 mph - N/A   Clear
8:55 AM 26.6 °F 19.1 °F 21.2 °F 80% 30.00 in 5.0 mi NNE 6.9 mph - N/A   Clear
9:15 AM 28.4 °F 22.2 °F 21.2 °F 74% 30.00 in 5.0 mi NE 5.8 mph - N/A   Clear
9:35 AM 28.4 °F 22.2 °F 21.2 °F 74% 30.01 in 6.0 mi NNE 5.8 mph - N/A   Clear
9:55 AM 28.4 °F 22.2 °F 21.2 °F 74% 30.00 in 6.0 mi NNE 5.8 mph - N/A   Clear
10:15 AM 30.2 °F 22.6 °F 23.0 °F 75% 29.99 in 6.0 mi NE 8.1 mph - N/A   Clear
10:55 AM 30.2 °F 26.7 °F 21.2 °F 69% 30.00 in 7.0 mi NE 3.5 mph - N/A   Clear
11:15 AM 33.8 °F 28.6 °F 23.0 °F 65% 30.01 in 8.0 mi NNW 5.8 mph - N/A   Clear
11:35 AM 33.8 °F 29.6 °F 23.0 °F 65% 29.98 in 9.0 mi North 4.6 mph - N/A   Clear
11:55 AM 33.8 °F - 23.0 °F 65% 29.97 in 9.0 mi Calm Calm - N/A   Clear
12:15 PM 35.6 °F 29.9 °F 23.0 °F 60% 29.96 in 10.0 mi North 6.9 mph - N/A   Clear
12:35 PM 35.6 °F 31.7 °F 23.0 °F 60% 29.96 in 10.0 mi NNE 4.6 mph - N/A   Clear
12:55 PM 37.4 °F 33.8 °F 23.0 °F 56% 29.95 in 10.0 mi North 4.6 mph - N/A   Clear
1:15 PM 37.4 °F 34.9 °F 24.8 °F 60% 29.93 in 10.0 mi NE 3.5 mph - N/A   Clear
1:35 PM 39.2 °F - 24.8 °F 56% 29.95 in 10.0 mi Calm Calm - N/A   Clear
2:15 PM 41.0 °F 38.0 °F 24.8 °F 53% 29.94 in 10.0 mi NNE 4.6 mph - N/A   Clear
2:35 PM 41.0 °F 35.8 °F 24.8 °F 53% 29.94 in 10.0 mi North 8.1 mph - N/A   Clear
3:15 PM 41.0 °F 35.2 °F 24.8 °F 53% 29.95 in 10.0 mi North 9.2 mph - N/A   Clear
3:35 PM 41.0 °F 34.7 °F 24.8 °F 53% 29.95 in 10.0 mi North 10.4 mph - N/A   Clear
3:55 PM 39.2 °F 32.5 °F 24.8 °F 56% 29.96 in 10.0 mi North 10.4 mph - N/A   Clear
4:35 PM 37.4 °F 29.8 °F 24.8 °F 60% 29.96 in 9.0 mi North 11.5 mph - N/A   Clear
5:15 PM 35.6 °F 28.6 °F 24.8 °F 65% 29.95 in 9.0 mi NNE 9.2 mph - N/A   Clear
5:35 PM 35.6 °F 29.2 °F 24.8 °F 65% 29.96 in 10.0 mi NNE 8.1 mph - N/A   Clear
6:15 PM 33.8 °F 27.7 °F 24.8 °F 70% 29.96 in 10.0 mi NE 6.9 mph - N/A   Clear
6:55 PM 33.8 °F 25.8 °F 24.8 °F 70% 29.97 in 8.0 mi NNE 10.4 mph - N/A   Clear
7:15 PM 33.8 °F 25.3 °F 24.8 °F 70% 29.96 in 8.0 mi NE 11.5 mph - N/A   Clear
7:35 PM 32.0 °F 23.6 °F 23.0 °F 69% 29.95 in 8.0 mi NE 10.4 mph - N/A   Clear
7:55 PM 32.0 °F 23.6 °F 23.0 °F 69% 29.94 in 8.0 mi NE 10.4 mph - N/A   Clear
8:35 PM 30.2 °F 21.9 °F 23.0 °F 75% 29.94 in 8.0 mi NE 9.2 mph - N/A   Clear
8:55 PM 30.2 °F 22.6 °F 23.0 °F 75% 29.96 in 8.0 mi NE 8.1 mph - N/A   Clear
9:15 PM 30.2 °F 22.6 °F 23.0 °F 75% 29.95 in 8.0 mi NE 8.1 mph - N/A   Clear
10:15 PM 30.2 °F 22.6 °F 23.0 °F 75% 29.95 in 8.0 mi NE 8.1 mph - N/A   Clear
10:35 PM 30.2 °F 22.6 °F 23.0 °F 75% 29.96 in 7.0 mi NE 8.1 mph - N/A   Clear
10:55 PM 30.2 °F 21.9 °F 23.0 °F 75% 29.94 in 7.0 mi ENE 9.2 mph - N/A   Clear
11:15 PM 30.2 °F 21.3 °F 23.0 °F 75% 29.94 in 7.0 mi ENE 10.4 mph - N/A   Clear
11:55 PM 30.2 °F 22.6 °F 21.2 °F 69% 29.94 in 7.0 mi ENE 8.1 mph - N/A   Clear